Location: Lombray
(49.5154°N, 3.1089°E)
Time: 20:30:28
(UTC+00:00)

NOSS 3-3 (A) - Pass Details

Date: 15 May 2026
Orbit: 691 x 1518 km, 63.4° (Epoch: 11 January)

Event Time Altitude Azimuth Distance (km) Brightness Sun altitude
Rises 19:56:22 0° 208° (SSW) 3,126 6.6 -5.0°
Reaches altitude 10° 19:58:35 10° 204° (SSW) 2,263 5.8 -5.3°
Maximum altitude 20:03:38 62° 125° (SE) 935 3.7 -5.9°
Drops below altitude 10° 20:09:42 10° 46° (NE) 2,701 6.3 -6.7°
Sets 20:12:34 0° 44° (NE) 3,785 7.1 -7.1°
